Погода в Панагии

Греция     37°36′59″N   23°09′15″E
темп.,
°C
ветер,
м/с
пор.,
м/с
влажн.,
%
обл.,
%
осадки,
мм/ч
давл.,
гПа
погр.,
м
15 мая, сб
сб1500:00+16з11534 0.0 101411
03:00+15зсз11573 0.0 101311
06:00+14с0158100 0.0 101210
09:00+20ю1140100 0.0 1013324
12:00+22ю1236100 0.0 1012651
15:00+24юз143275 0.0 10101457
18:00+22ссв124183 0.0 1009830
21:00+17ссз23540 0.0 100858
16 мая, вс
вс1600:00+14ссз01740 0.0 100911
03:00+14сз227099 0.0 100922
06:00+13ссз127448 0.0 100936
09:00+19с12537 0.0 1010544
12:00+22в234396 0.0 10101554
15:00+22юв33405 0.0 10101378
18:00+21ююв33455 0.0 1010897
21:00+16юз11655 0.0 101016
17 мая, пн
пн1700:00+15зсз116799 0.0 101112
03:00+15з11675 0.0 101111
06:00+14зсз11680 0.0 101111
09:00+21вюв01445 0.0 1012365
12:00+25ююв22355 0.0 10111051
15:00+26юв22355 0.0 1011896
18:00+25вюв11409 0.0 1011640
21:00+19с12612 0.0 101121
18 мая, вт
вт1800:00+18зсз11640 0.0 101214
03:00+17сз11620 0.0 101111
06:00+17з11600 0.0 101111
09:00+24зсз01355 0.0 1012302
12:00+30ююв1325100 0.0 10111274
15:00+30вюв1328100 0.0 1010906
18:00+29в21285 0.0 1010800
21:00+22с11460 0.0 101014
19 мая, ср
ср1900:00+20зсз11470 0.0 101111
03:00+20з22460 0.0 101016
06:00+18зсз12482 0.0 100911
09:00+25зюз12280 0.0 1010342
12:00+29в14240 0.0 10101291
15:00+28всв23265 0.0 1010986
18:00+27ссв232882 0.0 1009791
21:00+20з11435 0.0 101013